Location: Dugenta
(41.1333°N, 14.4500°E)
Time: 13:14:59
(UTC+00:00)

Cosmos 2074 Rocket - Pass Details

Date: 03 March 2021
Orbit: 967 x 986 km, 82.9° (Epoch: 21 April)

Event Time Altitude Azimuth Distance (km) Brightness Sun altitude
Rises 17:31:48 0° 188° (S) 3,675 7.2 -7.6°
Reaches altitude 10° 17:34:19 10° 190° (S) 2,729 6.5 -8.1°
Maximum altitude 17:40:35 81° 277° (W) 997 4.2 -9.3°
Drops below altitude 10° 17:46:52 10° 5° (N) 2,734 6.3 -10.5°
Sets 17:49:23 0° 7° (N) 3,683 7.0 -10.9°
